Hourly Data Report for October 25, 2016

All times are specified in Local Standard Time (LST). Add 1 hour to adjust for Daylight Saving Time where and when it is observed.

HALL BEACH A
NUNAVUT

68°46'33.000" N
81°14'33.000" W
9.10 m
2402354
71293
YUX

Download Data

Hourly Data (October 2016)
Hourly Data Report for October 25, 2016
Temp Definition
°C
Dew Point Temp Definition
°C
Rel Hum Definition
%
Wind Dir Definition
10's deg

Wind Spd Definition
km/h
Visibility Definition
km
Stn Press Definition
kPa
Hmdx Definition


Wind Chill Definition


Weather Definition


TIME
00:00 Legend Double Dagger -11.9 -13.4 89 32 28 16.1 102.46   -22 LegendNANA
01:00 Legend Double Dagger -13.7 -15.4 87 31 26 16.1 102.45   -24 LegendNANA
02:00 Legend Double Dagger -13.7 -15.4 87 32 32 16.1 102.42   -25 LegendNANA
03:00 Legend Double Dagger -13.6 -15.3 87 32 35 16.1 102.42   -25 LegendNANA
04:00 Legend Double Dagger -14.7 -16.6 86 31 32 16.1 102.44   -26 LegendNANA
05:00 Legend Double Dagger -15.6 -17.4 86 30 22 16.1 102.48   -25 LegendNANA
06:00 Legend Double Dagger -15.7 -17.4 87 31 24 16.1 102.47   -26 LegendNANA
07:00 Legend Double Dagger -16.2 -18.0 86 31 24 16.1 102.45   -27 LegendNANA
08:00 Legend Double Dagger -15.8 -17.8 85 31 28 16.1 102.42   -27 LegendNANA
09:00 Legend Double Dagger -15.9 -18.0 84 29 18 16.1 102.43   -25 LegendNANA
10:00 Legend Double Dagger -15.8 -17.9 84 31 26 16.1 102.40   -26 LegendNANA
11:00 Legend Double Dagger -15.2 -17.5 83 31 21 16.1 102.39   -25 LegendNANA
12:00 Legend Double Dagger -14.6 -16.9 83 31 26 16.1 102.36   -25 LegendNANA
13:00 Legend Double Dagger -14.0 -16.3 83 30 18 16.1 102.36   -22 LegendNANA
14:00 Legend Double Dagger -14.5 -16.6 85 29 21 16.1 102.37   -24 LegendNANA
15:00 Legend Double Dagger -14.9 -16.8 86 30 21 16.1 102.35   -24 LegendNANA
16:00 Legend Double Dagger -15.9 -17.6 87 30 17 16.1 102.32   -25 LegendNANA
17:00 Legend Double Dagger -16.1 -17.8 87 30 17 16.1 102.29   -25 LegendNANA
18:00 Legend Double Dagger -16.1 -17.8 87 30 18 16.1 102.26   -25 LegendNANA
19:00 Legend Double Dagger -16.6 -18.1 88 29 17 16.1 102.19   -25 LegendNANA
20:00 Legend Double Dagger -17.1 -18.4 90 26 11 16.1 102.15   -24 LegendNANA
21:00 Legend Double Dagger -17.8 -19.5 87 26 17 16.1 102.11   -27 LegendNANA
22:00 Legend Double Dagger -16.2 -17.8 88 28 17 16.1 102.02   -25 LegendNANA
23:00 Legend Double Dagger -15.1 -16.8 87 30 15 16.1 101.96   -23 LegendNANA

Notes on Data Quality.

Legend

  • E = Estimated
  • M = Missing
  • NA = Not Available
  • ‡ = Partner data that is not subject to review by the National Climate Archives
Date modified: